Zurück zum Katalog

STARLINK-5415

AktivKommunikationVLEO
NORAD 54796·PAYLOAD·🇺🇸 United States

Gestartet Dec 17, 2022 von Cape Canaveral Space Force Station

Loading…

Nächste Überflüge (nächste 24 Stunden)

TLE

AktuellSource: CelesTrak SupGP

Epoche: Sep 15, 2026, 02:05 UTC

1 54796C 22175AQ  26258.08729167 -.00024844  00000+0 -73397-3 0  2584
2 54796  53.1590 244.8683 0001008  79.0470 254.9486 15.34405397    17

Verfolge STARLINK-5415 in Echtzeit mit AllMySat

Download on the App Store